CSN827 RPVE-RPVP

Flight info

Callsign CSN827
Flight time 0h 51m
Altitude 34000
Route KLO8A KLO TR14 IOO W17 ZENNY ZENNY2W
Aircraft A320/M-SDE3FGHIRWY/LB1

Departure

Time 2026-05-07 13:40
Airport Godofredo P. Ramos Airport (RPVE)

Arrival

Time 2026-05-07 14:32
Airport Puerto Princesa International Airport / PAF Antonio Bautista Air Base (RPVP)
Time Latitude Longitude Altitude Speed Heading
2026-05-07 13:19 11.92705 121.96479 -5 ft 0 kts 152°
2026-05-07 13:32 11.92708 121.96477 -5 ft 2 kts 153°
2026-05-07 13:32 11.92721 121.96470 -5 ft 2 kts 152°
2026-05-07 13:33 11.92736 121.96466 -5 ft 2 kts 189°
2026-05-07 13:33 11.92750 121.96472 -5 ft 2 kts 221°
2026-05-07 13:33 11.92755 121.96479 -5 ft 1 kts 241°
2026-05-07 13:33 11.92758 121.96485 -5 ft 0 kts 243°
2026-05-07 13:36 11.92757 121.96482 -5 ft 3 kts 244°
2026-05-07 13:37 11.92738 121.96442 -5 ft 10 kts 242°
2026-05-07 13:37 11.92692 121.96352 -5 ft 18 kts 244°
2026-05-07 13:37 11.92634 121.96236 -5 ft 11 kts 257°
2026-05-07 13:37 11.92706 121.96171 -5 ft 18 kts 333°
2026-05-07 13:38 11.92796 121.96084 -5 ft 20 kts 253°
2026-05-07 13:38 11.92721 121.95937 -5 ft 26 kts 241°
2026-05-07 13:38 11.92632 121.95757 -5 ft 31 kts 240°
2026-05-07 13:38 11.92529 121.95547 -5 ft 35 kts 243°
2026-05-07 13:39 11.92412 121.95317 -5 ft 34 kts 239°
2026-05-07 13:39 11.92320 121.95134 -5 ft 24 kts 240°
2026-05-07 13:39 11.92246 121.95047 -5 ft 16 kts 233°
2026-05-07 13:39 11.92271 121.95029 -5 ft 10 kts 70°
2026-05-07 13:40 11.92316 121.95119 -5 ft 34 kts 63°
2026-05-07 13:40 11.92547 121.95577 -5 ft 109 kts 63°
2026-05-07 13:40 11.92991 121.96443 75 ft 159 kts 58°
2026-05-07 13:40 11.93576 121.97421 656 ft 167 kts 57°
2026-05-07 13:41 11.94195 121.98419 1366 ft 174 kts 59°
2026-05-07 13:41 11.94817 121.99516 1974 ft 185 kts 61°
2026-05-07 13:41 11.95460 122.00679 2528 ft 194 kts 59°
2026-05-07 13:41 11.96066 122.01927 3125 ft 201 kts 75°
2026-05-07 13:42 11.96110 122.03410 3398 ft 228 kts 102°
2026-05-07 13:42 11.95399 122.04951 3754 ft 255 kts 126°
2026-05-07 13:42 11.94150 122.06266 4500 ft 263 kts 131°
2026-05-07 13:42 11.92864 122.07580 5297 ft 265 kts 130°
2026-05-07 13:43 11.91611 122.08953 6090 ft 267 kts 128°
2026-05-07 13:43 11.90390 122.10372 6859 ft 269 kts 127°
2026-05-07 13:43 11.89173 122.11842 7596 ft 273 kts 126°
2026-05-07 13:43 11.87968 122.13334 8308 ft 276 kts 126°
2026-05-07 13:44 11.86762 122.14845 9003 ft 279 kts 126°
2026-05-07 13:44 11.85541 122.16389 9666 ft 282 kts 126°
2026-05-07 13:44 11.84310 122.17948 10293 ft 286 kts 126°
2026-05-07 13:44 11.83036 122.19566 10654 ft 300 kts 126°
2026-05-07 13:45 11.81699 122.21271 10932 ft 317 kts 126°
2026-05-07 13:45 11.80282 122.23075 11291 ft 329 kts 126°
2026-05-07 13:45 11.78841 122.24906 11864 ft 334 kts 126°
2026-05-07 13:45 11.77389 122.26754 12452 ft 337 kts 126°
2026-05-07 13:46 11.75920 122.28623 13007 ft 341 kts 126°
2026-05-07 13:46 11.74437 122.30513 13585 ft 343 kts 126°
2026-05-07 13:46 11.72947 122.32409 14177 ft 345 kts 126°
2026-05-07 13:46 11.71444 122.34320 14744 ft 347 kts 126°
2026-05-07 13:47 11.69905 122.36241 15282 ft 350 kts 130°
2026-05-07 13:47 11.67978 122.37785 15784 ft 358 kts 149°
2026-05-07 13:47 11.65618 122.38658 16299 ft 366 kts 166°
2026-05-07 13:47 11.63082 122.39019 16786 ft 370 kts 170°
2026-05-07 13:48 11.60511 122.39329 17231 ft 374 kts 170°
2026-05-07 13:48 11.57912 122.39645 17698 ft 377 kts 170°
2026-05-07 13:48 11.55299 122.39969 18164 ft 380 kts 170°
2026-05-07 13:48 11.52650 122.40303 18627 ft 382 kts 170°
2026-05-07 13:49 11.50008 122.40640 19074 ft 384 kts 170°
2026-05-07 13:49 11.47348 122.40981 19516 ft 387 kts 170°
2026-05-07 13:49 11.44668 122.41325 19954 ft 389 kts 170°
2026-05-07 13:49 11.41973 122.41671 20385 ft 392 kts 170°
2026-05-07 13:50 11.39261 122.42020 20810 ft 394 kts 170°
2026-05-07 13:50 11.36530 122.42372 21232 ft 397 kts 170°
2026-05-07 13:50 11.33765 122.42727 21651 ft 399 kts 170°
2026-05-07 13:50 11.31000 122.43083 22071 ft 401 kts 170°
2026-05-07 13:51 11.28228 122.43440 22495 ft 403 kts 170°
2026-05-07 13:51 11.25436 122.43802 22915 ft 405 kts 171°
2026-05-07 13:51 11.22632 122.44162 23326 ft 408 kts 171°
2026-05-07 13:51 11.19804 122.44526 23733 ft 410 kts 171°
2026-05-07 13:52 11.16965 122.44888 24136 ft 413 kts 171°
2026-05-07 13:52 11.14085 122.45256 24537 ft 415 kts 171°
2026-05-07 13:52 11.11217 122.45624 24931 ft 417 kts 172°
2026-05-07 13:52 11.08333 122.45994 25313 ft 419 kts 172°
2026-05-07 13:53 11.05426 122.46367 25682 ft 422 kts 172°
2026-05-07 13:53 11.02504 122.46741 26047 ft 424 kts 172°
2026-05-07 13:53 10.99566 122.47119 26404 ft 426 kts 172°
2026-05-07 13:53 10.96614 122.47497 26757 ft 429 kts 172°
2026-05-07 13:54 10.93623 122.47880 27089 ft 431 kts 173°
2026-05-07 13:54 10.90632 122.48148 27389 ft 434 kts 182°
2026-05-07 13:54 10.87658 122.47626 27674 ft 435 kts 200°
2026-05-07 13:54 10.84976 122.46235 28017 ft 434 kts 217°
2026-05-07 13:55 10.82801 122.44129 28347 ft 434 kts 233°
2026-05-07 13:55 10.81305 122.41489 28660 ft 434 kts 249°
2026-05-07 13:55 10.80418 122.38569 28988 ft 434 kts 254°
2026-05-07 13:55 10.79595 122.35595 29228 ft 437 kts 254°
2026-05-07 13:56 10.78766 122.32619 29486 ft 439 kts 253°
2026-05-07 13:56 10.77929 122.29646 29840 ft 438 kts 253°
2026-05-07 13:56 10.77089 122.26689 30213 ft 437 kts 253°
2026-05-07 13:56 10.76247 122.23742 30572 ft 436 kts 253°
2026-05-07 13:57 10.75407 122.20803 30906 ft 434 kts 254°
2026-05-07 13:57 10.74574 122.17866 31207 ft 434 kts 253°
2026-05-07 13:57 10.73733 122.14913 31513 ft 434 kts 253°
2026-05-07 13:57 10.72893 122.11985 31827 ft 433 kts 253°
2026-05-07 13:58 10.72052 122.09060 32136 ft 432 kts 253°
2026-05-07 13:58 10.71211 122.06140 32400 ft 432 kts 253°
2026-05-07 13:58 10.70371 122.03223 32658 ft 433 kts 253°
2026-05-07 13:58 10.69525 122.00293 32916 ft 434 kts 253°
2026-05-07 13:59 10.68677 121.97357 33199 ft 434 kts 253°
2026-05-07 13:59 10.67824 121.94404 33488 ft 434 kts 253°
2026-05-07 13:59 10.66973 121.91461 33753 ft 435 kts 253°
2026-05-07 14:00 10.65278 121.85562 33809 ft 437 kts 253°
2026-05-07 14:00 10.63579 121.79660 33811 ft 437 kts 253°
2026-05-07 14:01 10.61869 121.73726 33804 ft 437 kts 253°
2026-05-07 14:01 10.60162 121.67816 33796 ft 437 kts 253°
2026-05-07 14:02 10.58451 121.61904 33793 ft 438 kts 253°
2026-05-07 14:02 10.56742 121.56002 33792 ft 437 kts 253°
2026-05-07 14:03 10.55027 121.50071 33790 ft 437 kts 253°
2026-05-07 14:03 10.53315 121.44167 33791 ft 437 kts 253°
2026-05-07 14:04 10.51604 121.38270 33792 ft 437 kts 253°
2026-05-07 14:04 10.49887 121.32346 33794 ft 437 kts 253°
2026-05-07 14:05 10.48167 121.26445 33793 ft 437 kts 253°
2026-05-07 14:05 10.46453 121.20550 33794 ft 437 kts 253°
2026-05-07 14:06 10.44738 121.14647 33802 ft 437 kts 253°
2026-05-07 14:06 10.43018 121.08727 33810 ft 437 kts 253°
2026-05-07 14:07 10.41299 121.02828 33813 ft 437 kts 253°
2026-05-07 14:07 10.39582 120.96930 33812 ft 437 kts 253°
2026-05-07 14:08 10.37859 120.91014 33812 ft 437 kts 253°
2026-05-07 14:08 10.36136 120.85114 33520 ft 437 kts 253°
2026-05-07 14:08 10.35276 120.82168 33234 ft 435 kts 253°
2026-05-07 14:09 10.34423 120.79244 32929 ft 433 kts 253°
2026-05-07 14:09 10.33574 120.76338 32524 ft 431 kts 253°
2026-05-07 14:09 10.32726 120.73439 32066 ft 431 kts 253°
2026-05-07 14:09 10.31870 120.70511 31500 ft 432 kts 253°
2026-05-07 14:10 10.31016 120.67596 30896 ft 432 kts 253°
2026-05-07 14:10 10.30164 120.64693 30269 ft 432 kts 253°
2026-05-07 14:10 10.29309 120.61780 29668 ft 432 kts 254°
2026-05-07 14:10 10.28455 120.58870 29109 ft 435 kts 254°
2026-05-07 14:11 10.27589 120.55921 28553 ft 438 kts 254°
2026-05-07 14:11 10.26726 120.52984 28199 ft 436 kts 254°
2026-05-07 14:11 10.25858 120.50027 27873 ft 436 kts 254°
2026-05-07 14:11 10.24996 120.47089 27540 ft 435 kts 254°
2026-05-07 14:12 10.24138 120.44164 27166 ft 433 kts 254°
2026-05-07 14:12 10.23286 120.41260 26745 ft 430 kts 254°
2026-05-07 14:12 10.22435 120.38387 26290 ft 427 kts 254°
2026-05-07 14:12 10.21579 120.35514 25810 ft 424 kts 253°
2026-05-07 14:13 10.20730 120.32666 25336 ft 421 kts 253°
2026-05-07 14:13 10.19880 120.29818 24833 ft 420 kts 253°
2026-05-07 14:13 10.19039 120.27000 24383 ft 417 kts 253°
2026-05-07 14:13 10.18206 120.24211 23945 ft 414 kts 253°
2026-05-07 14:14 10.17378 120.21437 23486 ft 411 kts 253°
2026-05-07 14:14 10.16555 120.18678 23027 ft 410 kts 253°
2026-05-07 14:14 10.15735 120.15924 22551 ft 409 kts 253°
2026-05-07 14:14 10.14917 120.13178 22085 ft 407 kts 253°
2026-05-07 14:15 10.14100 120.10429 21637 ft 406 kts 254°
2026-05-07 14:15 10.13290 120.07699 21177 ft 405 kts 254°
2026-05-07 14:15 10.12485 120.04988 20733 ft 403 kts 254°
2026-05-07 14:15 10.11677 120.02274 20281 ft 402 kts 253°
2026-05-07 14:16 10.10874 119.99578 19817 ft 401 kts 253°
2026-05-07 14:16 10.10069 119.96884 19365 ft 400 kts 253°
2026-05-07 14:16 10.09268 119.94202 18908 ft 399 kts 253°
2026-05-07 14:16 10.08458 119.91494 18445 ft 398 kts 253°
2026-05-07 14:17 10.07658 119.88822 17989 ft 397 kts 253°
2026-05-07 14:17 10.06861 119.86158 17536 ft 396 kts 253°
2026-05-07 14:17 10.06065 119.83496 17081 ft 395 kts 253°
2026-05-07 14:17 10.05271 119.80850 16641 ft 393 kts 253°
2026-05-07 14:18 10.04479 119.78210 16215 ft 391 kts 253°
2026-05-07 14:18 10.03694 119.75591 15800 ft 389 kts 253°
2026-05-07 14:18 10.02908 119.72973 15386 ft 386 kts 253°
2026-05-07 14:18 10.02133 119.70388 14977 ft 383 kts 253°
2026-05-07 14:19 10.01361 119.67817 14568 ft 381 kts 253°
2026-05-07 14:19 10.00595 119.65265 14158 ft 379 kts 253°
2026-05-07 14:19 9.99833 119.62728 13738 ft 377 kts 253°
2026-05-07 14:19 9.99075 119.60204 13317 ft 375 kts 253°
2026-05-07 14:20 9.98320 119.57692 12912 ft 372 kts 253°
2026-05-07 14:20 9.97564 119.55174 12498 ft 370 kts 253°
2026-05-07 14:20 9.96819 119.52695 12098 ft 368 kts 253°
2026-05-07 14:20 9.96079 119.50231 11687 ft 366 kts 253°
2026-05-07 14:21 9.95341 119.47776 11315 ft 362 kts 253°
2026-05-07 14:21 9.94619 119.45375 11105 ft 352 kts 253°
2026-05-07 14:21 9.93920 119.43044 11003 ft 339 kts 253°
2026-05-07 14:21 9.93153 119.40843 10961 ft 324 kts 246°
2026-05-07 14:22 9.92148 119.38816 10632 ft 322 kts 240°
2026-05-07 14:22 9.90994 119.36857 10088 ft 327 kts 238°
2026-05-07 14:22 9.89805 119.34909 9779 ft 322 kts 238°
2026-05-07 14:22 9.88636 119.32994 9426 ft 320 kts 238°
2026-05-07 14:23 9.87470 119.31073 8999 ft 320 kts 238°
2026-05-07 14:23 9.86323 119.29169 8699 ft 315 kts 238°
2026-05-07 14:23 9.85190 119.27285 8400 ft 311 kts 238°
2026-05-07 14:23 9.84069 119.25417 8081 ft 307 kts 238°
2026-05-07 14:24 9.82961 119.23577 7725 ft 305 kts 238°
2026-05-07 14:24 9.81863 119.21748 7359 ft 304 kts 238°
2026-05-07 14:24 9.80769 119.19929 7008 ft 302 kts 238°
2026-05-07 14:24 9.79682 119.18121 6657 ft 300 kts 238°
2026-05-07 14:25 9.78603 119.16325 6305 ft 298 kts 238°
2026-05-07 14:25 9.77531 119.14540 5953 ft 297 kts 238°
2026-05-07 14:25 9.76456 119.12749 5598 ft 295 kts 238°
2026-05-07 14:25 9.75393 119.10976 5266 ft 293 kts 238°
2026-05-07 14:26 9.74342 119.09228 4928 ft 291 kts 238°
2026-05-07 14:26 9.73323 119.07469 4582 ft 289 kts 246°
2026-05-07 14:26 9.72840 119.05524 4233 ft 285 kts 269°
2026-05-07 14:26 9.72892 119.03542 3918 ft 281 kts 275°
2026-05-07 14:27 9.73021 119.01588 3632 ft 277 kts 276°
2026-05-07 14:27 9.73141 118.99646 3359 ft 273 kts 275°
2026-05-07 14:27 9.73241 118.97744 3090 ft 268 kts 275°
2026-05-07 14:27 9.73333 118.95894 2968 ft 258 kts 275°
2026-05-07 14:28 9.73422 118.94136 2949 ft 243 kts 275°
2026-05-07 14:28 9.73501 118.92462 2816 ft 235 kts 275°
2026-05-07 14:28 9.73574 118.90835 2519 ft 228 kts 274°
2026-05-07 14:28 9.73636 118.89265 2243 ft 220 kts 274°
2026-05-07 14:29 9.73700 118.87749 2045 ft 207 kts 275°
2026-05-07 14:29 9.73761 118.86345 1777 ft 195 kts 276°
2026-05-07 14:29 9.73818 118.85021 1524 ft 182 kts 276°
2026-05-07 14:29 9.73868 118.83789 1265 ft 170 kts 277°
2026-05-07 14:30 9.73916 118.82642 1032 ft 157 kts 276°
2026-05-07 14:30 9.73963 118.81584 837 ft 147 kts 273°
2026-05-07 14:30 9.73976 118.80550 680 ft 147 kts 272°
2026-05-07 14:30 9.74005 118.79514 527 ft 147 kts 279°
2026-05-07 14:31 9.74066 118.78482 335 ft 147 kts 281°
2026-05-07 14:31 9.74143 118.77458 113 ft 146 kts 276°
2026-05-07 14:31 9.74193 118.76453 30 ft 134 kts 276°
2026-05-07 14:31 9.74222 118.75688 44 ft 85 kts 271°
2026-05-07 14:32 9.74241 118.75249 51 ft 50 kts 272°
2026-05-07 14:32 9.74263 118.74942 55 ft 27 kts 298°
2026-05-07 14:32 9.74266 118.74853 56 ft 0 kts 285°
2026-05-07 14:33 9.74267 118.74841 56 ft 3 kts 273°
2026-05-07 14:33 9.74264 118.74804 56 ft 7 kts 265°
2026-05-07 14:33 9.74263 118.74743 56 ft 10 kts 276°
2026-05-07 14:34 9.74323 118.74706 56 ft 13 kts 358°
2026-05-07 14:34 9.74411 118.74730 56 ft 14 kts 55°
2026-05-07 14:34 9.74424 118.74834 56 ft 16 kts 91°
2026-05-07 14:34 9.74426 118.74953 56 ft 17 kts 86°
2026-05-07 14:35 9.74423 118.75049 55 ft 9 kts 51°
2026-05-07 14:35 9.74489 118.75063 55 ft 9 kts
2026-05-07 14:35 9.74505 118.75064 55 ft 0 kts
2026-05-07 14:35 9.74506 118.75064 55 ft 0 kts